Other Public Products
Issued by NWS Grand Forks, ND

Home | Current Version | Previous Version | Text Only | Print | Product List | Glossary Off
Versions: 1 2 3 4 5 6 7 8 9 10 11 12 13 14 15 16 17 18 19 20 21 22 23 24 25 26 27 28 29 30 31 32 33 34 35 36 37 38 39 40 41 42 43 44 45 46 47 48 49 50

000
FPUS83 KFGF 251810
OPUFGF
PRAIRIE TO PINES WEATHER ROUNDUP
NATIONAL WEATHER SERVICE EASTERN NORTH DAKOTA/GRAND FORKS ND
1200 PM CST SUN FEB 25 2018

 **SATELLITE DATA USED TO AUGMENT SKY COVER AT AUTOMATED STATIONS**
 *****  WEATHER ACROSS EASTERN NORTH DAKOTA  *****

CITY           SKY/WX    TMP DP  RH WIND       PRES   REMARKS
GRAND FORKS    CLOUDY    27  21  78 W15       29.59R WCI  15
6HR MIN TEMP:   7; 6HR MAX TEMP:  27; 6HR PCP: TRACE;

GRND FORKS AFB CLOUDY    27  18  70 W12       29.59R WCI  16
GRND FORKS NWS   N/A     27  22  82 NW14      29.57R WCI  16
BUXTON           N/A     26  25  97 W16         N/A  WCI  14
DEVILS LAKE    CLOUDY    23  18  81 W18       29.59R WCI   9
6HR MIN TEMP:  17; 6HR MAX TEMP:  23; 6HR PCP: TRACE;

FARGO          PTSUNNY   26  20  77 W15       29.65R WCI  14
6HR MIN TEMP:  12; 6HR MAX TEMP:  26;

WAHPETON ARPT  FAIR      27  19  74 W20       29.69R WCI  13
$$

 *****  WEATHER ACROSS CENTRAL AND WESTERN NORTH DAKOTA  *****

CITY           SKY/WX    TMP DP  RH WIND       PRES   REMARKS
JAMESTOWN      FAIR      27  19  72 W21       29.65R WCI  13
6HR MIN TEMP:  19; 6HR MAX TEMP:  27;

BISMARCK       FAIR      28  17  63 W16       29.72R WCI  16
6HR MIN TEMP:  22; 6HR MAX TEMP:  28;

MINOT          FAIR      28  16  60 W16       29.62R WCI  16
6HR MIN TEMP:  18; 6HR MAX TEMP:  28;

MINOT AFB      FAIR      26  16  67 W13         N/A  WCI  15
6HR MIN TEMP:  15; 6HR MAX TEMP:  26;

GARRISON         N/A     24  15  68 W15       29.65R WCI  11
6HR MIN TEMP:  17; 6HR MAX TEMP:  24;

WILLISTON      FAIR      20   9  62 SW13      29.64F WCI   7
6HR MIN TEMP:  12; 6HR MAX TEMP:  20;

DICKINSON      FAIR      23  13  65 W17       29.64R WCI   9
6HR MIN TEMP:  12; 6HR MAX TEMP:  23;

HETTINGER      FAIR      22  14  71 W14       29.71R WCI   9
6HR MIN TEMP:   9; 6HR MAX TEMP:  22;

$$

 *****  OTHER OBSERVATIONS NORTHEAST NORTH DAKOTA  *****

CITY           SKY/WX    TMP DP  RH WIND       PRES   REMARKS
WALHALLA       FAIR      23  18  80 NW10G16   29.57R WCI  12
LANGDON        NOT AVBL
CAVALIER         N/A     25  18  74 NW14      29.57R WCI  13
GRAFTON        NOT AVBL
CANDO          CLOUDY    23  21  93 W20G25    29.59S WCI   8
FORT TOTTEN      N/A     28  19  68 NW9       29.95S WCI  19
ROLLA          MOCLDY    25  19  80 W10       29.55R WCI  15
RUGBY          NOT AVBL
 ***** THE ABOVE OBSERVATIONS ARE NON NWS ARE NOT QUALITY
        CONTROLLED AND MAY MIS-REPORT RAIN FOR SNOW...
$$

 *****  OTHER OBSERVATIONS SOUTHEAST NORTH DAKOTA *****

CITY           SKY/WX    TMP DP  RH WIND       PRES   REMARKS
COOPERSTOWN    FAIR      23  19  86 W25       29.61R WCI   7
VALLEY CITY    NOT AVBL
OAKES            N/A     25  19  80 W21       29.70R WCI  10
GWINNER          N/A     27  21  80 W16       29.69R WCI  14
SHEYENNE NWR     N/A     28  21  75 W12       29.95S WCI  18
BUFFALO          N/A     25  18  76 NW17        N/A  WCI  11
WYNDMERE       NOT AVBL
 ***** THE ABOVE OBSERVATIONS ARE NON NWS ARE NOT QUALITY
       CONTROLLED AND MAY MIS-REPORT RAIN FOR SNOW...
$$

  *****  WEATHER ACROSS NORTHERN MINNESOTA  *****

CITY           SKY/WX    TMP DP  RH WIND       PRES   REMARKS
FLAG ISLAND    PTSUNNY   25  18  74 W13       29.46R WCI  13
WARROAD        SNOW      21  18  86 W12       29.50R VSB 1/2 WCI   9
ROSEAU         LGT SNOW  21  16  79 SW13      29.52R WCI   9
HALLOCK        CLOUDY    21  16  79 W7        29.56R WCI  13
THF RVR FALLS  LGT SNOW  18  14  84 W12       29.58R FOG     WCI   5
6HR MIN TEMP:  12; 6HR MAX TEMP:  18; 6HR PCP: TRACE;

HALSTAD        NOT AVBL
FOSSTON        LGT SNOW  21  12  68 SW10      29.59R WCI  10
BAUDETTE       CLOUDY    25  18  74 W13G20    29.46R WCI  14
6HR MIN TEMP:  19; 6HR MAX TEMP:  25;

WASKISH        CLOUDY    21  18  86 SW17      29.52R WCI   7
CROOKSTON      PTSUNNY   23  19  86 W9        29.61R WCI  13
$$
  *****  WEATHER ACROSS CENTRAL AND WEST MINNESOTA  *****

CITY           SKY/WX    TMP DP  RH WIND       PRES   REMARKS
BEMIDJI        FAIR      20  14  75 W17       29.55R WCI   6
6HR MIN TEMP:  17; 6HR MAX TEMP:  20;

PARK RAPIDS    MIX PCPN  22  16  78 W15G25    29.58S WCI   9
6HR MIN TEMP:  12; 6HR MAX TEMP:  22; 6HR PCP: TRACE;

WADENA         CLOUDY    21  16  79 W17       29.63R WCI   7
DETROIT LAKES  CLOUDY    23  19  86 SW10      29.63R WCI  12
MOORHEAD       PTSUNNY   27  19  74 W13       29.66R WCI  16
FERGUS FALLS   CLOUDY    23  19  86 W17       29.69R WCI   9
ELBOW LAKE     CLOUDY    24  19  82 NW21G26   29.70R WCI   9
6HR MIN TEMP:   2; 6HR MAX TEMP:  24;

MORRIS MN      FAIR      28  19  69 W16       29.70R WCI  17
STAPLES        CLOUDY    21  16  79 W14       29.64R WCI   8
WHEATON        FAIR      28  19  69 W14G23    29.73R WCI  17
$$
  *****  WEATHER ELSEWHERE ACROSS MINNESOTA  *****

CITY           SKY/WX    TMP DP  RH WIND       PRES   REMARKS
DULUTH         CLOUDY    24  19  81 W21       29.49R WCI   9
6HR MIN TEMP:  22; 6HR MAX TEMP:  25; 6HR PCP: TRACE;

INTRNTL FALLS  CLOUDY    25  20  81 W17       29.44R WCI  12
6HR MIN TEMP:  21; 6HR MAX TEMP:  25; 6HR PCP:  0.03;

ELY            CLOUDY    21  19  93 W14G28    29.41R WCI   8
CLOQUET        CLOUDY    25  16  68 SW17G29   29.53R WCI  11
BRAINERD       PTSUNNY   23  14  68 W17G26    29.63R HAZE    WCI   9
6HR MIN TEMP:  18; 6HR MAX TEMP:  23;

HIBBING        LGT SNOW  23  17  78 W13G21    29.49R WCI  11
6HR MIN TEMP:  19; 6HR MAX TEMP:  24; 6HR PCP: TRACE;

ALEXANDRIA     CLOUDY    25  19  78 W23       29.67R WCI  10
6HR MIN TEMP:   9; 6HR MAX TEMP:  25;

SAINT CLOUD    CLOUDY    23  15  71 W14       29.70R WCI  11
6HR MIN TEMP:  13; 6HR MAX TEMP:  23;

MINNEAPOLIS    FAIR      23  14  68 W17G23    29.76R WCI   9
6HR MIN TEMP:  15; 6HR MAX TEMP:  23;

$$

  *****  WEATHER ACROSS SOUTH DAKOTA  *****

CITY           SKY/WX    TMP DP  RH WIND       PRES   REMARKS
SIOUX FALLS    FAIR      26  17  68 W9        29.86S WCI  17
6HR MIN TEMP:  11; 6HR MAX TEMP:  26;

BROOKINGS      FLURRIES  24  17  74 W12       29.81R WCI  13
WATERTOWN      FAIR      23  17  78 W17       29.74R WCI   9
6HR MIN TEMP:   8; 6HR MAX TEMP:  23;

HURON          FAIR      30  21  69 W9        29.83R WCI  22
6HR MIN TEMP:  17; 6HR MAX TEMP:  30;

SISSETON         N/A     26  19  74 W20G30    29.70R WCI  12
ABERDEEN       FAIR      26  17  68 W15       29.77R WCI  14
6HR MIN TEMP:  13; 6HR MAX TEMP:  26;

MITCHELL       FAIR      27  17  66 SW10      29.88R WCI  17
PIERRE         FAIR      25  14  63 W14       29.83R WCI  13
6HR MIN TEMP:  15; 6HR MAX TEMP:  26;

MOBRIDGE       FAIR      27  15  61 W9        29.74R WCI  18
RAPID CITY     FAIR      26  16  65 VRB6      29.78S WCI  19
6HR MIN TEMP:   8; 6HR MAX TEMP:  30;

$$

  *****  SOME WEATHER IN NEARBY STATES *****

CITY           SKY/WX    TMP DP  RH WIND       PRES   REMARKS
GLASGOW MT     PTSUNNY   13   7  77 SE6       29.59F WCI   4
6HR MIN TEMP:   0; 6HR MAX TEMP:  14;

GREAT FALLS MT FAIR      27  17  66 SW32G44   29.59S WCI  10
6HR MIN TEMP:  23; 6HR MAX TEMP:  27;

CHEYENNE WY    PTSUNNY   28   6  39 W24G37    29.84F WCI  14
6HR MIN TEMP:  17; 6HR MAX TEMP:  28;

SCOTTSBLUFF NE FAIR      34  15  46 W23G32    29.88S WCI  22
6HR MIN TEMP:  21; 6HR MAX TEMP:  34;

OMAHA NE       PTSUNNY   38  20  48 W6        30.01R
6HR MIN TEMP:  20; 6HR MAX TEMP:  38;

DES MOINES IA  FAIR      38  26  62 W13       29.97R
6HR MIN TEMP:  23; 6HR MAX TEMP:  38;

DAVENPORT IA   FAIR      41  25  53 W21       29.96S
6HR MIN TEMP:  30; 6HR MAX TEMP:  41;

CHICAGO IL     FAIR      39  24  55 W21G26    29.91R
6HR MIN TEMP:  34; 6HR MAX TEMP:  40;

EAU CLAIRE WI  FAIR      24  15  68 SW18G28   29.71R WCI  10
6HR MIN TEMP:  18; 6HR MAX TEMP:  24;

LA CROSSE WI   FAIR      30  20  66 SW12G17   29.81R WCI  20
6HR MIN TEMP:  23; 6HR MAX TEMP:  30;

$$

  *****  SOME NATIONAL WEATHER *****

CITY           SKY/WX    TMP DP  RH WIND       PRES   REM


USA.gov is the U.S. government's official web portal to all federal, state and local government web resources and services.